Weather History for KCRP - February, 2013

Change the Weather History Date:

Monday, February 25, 2013

  Actual Average Record
Temperature  
Mean Temperature 66 °F 62 °F  
Max Temperature 77 °F 72 °F 91 °F (2008)
Min Temperature 54 °F 53 °F 27 °F (1960)
Degree Days  
Heating Degree Days 0 5  
Month to date heating degree days 50 160  
Since 1 July heating degree days 433 787  
Cooling Degree Days 1 2  
Month to date cooling degree days 77 43  
Year to date cooling degree days 144 73  
Growing Degree Days 16 (Base 50)    
Moisture  
Dew Point 44 °F    
Average Humidity 51    
Maximum Humidity 93    
Minimum Humidity 8    
Precipitation  
Precipitation 0.00 in 0.07 in 4.70 in (1982)
Month to date precipitation 0.44 1.68  
Year to date precipitation 1.69 3.22  
Snow  
Snow 0.00 in - - ()
Month to date snowfall 0.0  
Since 1 July snowfall 0.0  
Snow Depth 0.00 in    
Sea Level Pressure  
Sea Level Pressure 29.67 in    
Wind  
Wind Speed 25 mph (West)    
Max Wind Speed 54 mph    
Max Gust Speed 63 mph    
Visibility 6 miles    
Events      
T = Trace of Precipitation, MM = Missing Value Source: NWS Daily Summary

Daily Weather History Graph

Daily Weather History Graph

Search for Another Location

Airport or City:

Trip Planner

Search our weather history database for the weather conditions in past years. The results will help you decide how hot, cold, wet, or windy it might be!

Date:

Astronomy

Feb. 25, 2013 Rise Set
Actual Time 6:58 AM CST 6:28 PM CST
Civil Twilight 6:34 AM CST 6:51 PM CST
Nautical Twilight 6:07 AM CST 7:19 PM CST
Astronomical Twilight 5:40 AM CST 7:46 PM CST
Moon 6:36 PM CST (2/25) 6:32 AM CST (2/25)
Length of Visible Light 12h 17m
Length of Day
11h 30m
Full, 100% of the Moon is Illuminated
Feb 25
Full
Feb 25
Full
Mar 4
Last Quarter
Mar 11
New
Mar 19
First Quarter

Hourly Weather History & Observations

Time (CST) Temp. Dew Point Humidity Pressure Visibility Wind Dir Wind Speed Gust Speed Precip Events Conditions
12:24 AM 68.0 °F 64.4 °F 88% 29.61 in 0.5 mi ESE 8.1 mph - N/A   Overcast
12:51 AM 68.0 °F 64.9 °F 90% 29.60 in 0.5 mi SSE 10.4 mph - N/A   Overcast
1:23 AM 68.0 °F 64.4 °F 88% 29.59 in 0.5 mi SSE 11.5 mph - N/A   Scattered Clouds
1:51 AM 66.9 °F 64.0 °F 90% 29.58 in 0.5 mi SE 8.1 mph - N/A   Partly Cloudy
1:54 AM 66.2 °F 64.4 °F 94% 29.59 in 5.0 mi SE 8.1 mph - N/A   Partly Cloudy
2:15 AM 66.2 °F 64.4 °F 94% 29.57 in 5.0 mi SSE 9.2 mph - N/A   Mostly Cloudy
2:51 AM 68.0 °F 64.9 °F 90% 29.56 in 4.0 mi South 12.7 mph - N/A   Overcast
3:18 AM 68.0 °F 64.4 °F 88% 29.55 in 4.0 mi South 13.8 mph - N/A   Overcast
3:44 AM 69.8 °F 66.2 °F 88% 29.54 in 5.0 mi South 16.1 mph - N/A   Overcast
3:51 AM 70.0 °F 66.0 °F 87% 29.53 in 5.0 mi South 16.1 mph - N/A   Overcast
4:47 AM 69.8 °F 66.2 °F 88% 29.54 in 5.0 mi South 10.4 mph - N/A   Overcast
4:51 AM 70.0 °F 66.0 °F 87% 29.53 in 5.0 mi South 10.4 mph - N/A   Overcast
5:35 AM 69.8 °F 66.2 °F 88% 29.54 in 5.0 mi South 10.4 mph - N/A   Overcast
5:51 AM 70.0 °F 66.0 °F 87% 29.54 in 5.0 mi SSW 10.4 mph - N/A   Overcast
6:51 AM 70.0 °F 66.0 °F 87% 29.60 in 5.0 mi WNW 12.7 mph - N/A   Overcast
7:20 AM 71.6 °F 66.2 °F 83% 29.61 in 2.5 mi WNW 13.8 mph - N/A   Haze
7:27 AM 71.6 °F 66.2 °F 83% 29.62 in 2.5 mi WNW 13.8 mph - N/A   Haze
7:39 AM 71.6 °F 66.2 °F 83% 29.62 in 5.0 mi WNW 11.5 mph - N/A   Haze
7:51 AM 71.1 °F 64.9 °F 81% 29.63 in 5.0 mi WNW 11.5 mph - N/A   Haze
8:28 AM 71.6 °F 64.4 °F 78% 29.65 in 6.0 mi NW 18.4 mph 23.0 mph N/A   Haze
8:51 AM 68.0 °F 55.0 °F 63% 29.68 in 6.0 mi NNW 31.1 mph 46.0 mph N/A   Haze
9:17 AM 68.0 °F 35.6 °F 30% 29.70 in 10.0 mi NNW 29.9 mph 44.9 mph N/A   Scattered Clouds
9:51 AM 70.0 °F 30.9 °F 24% 29.71 in 10.0 mi NNW 29.9 mph 39.1 mph N/A   Scattered Clouds
10:51 AM 73.0 °F 25.0 °F 17% 29.72 in 10.0 mi NW 32.2 mph 41.4 mph N/A   Clear
11:51 AM 75.0 °F 14.0 °F 10% 29.73 in 10.0 mi NW 36.8 mph 47.2 mph N/A   Clear
12:51 PM 75.9 °F 10.9 °F 8% 29.73 in 6.0 mi NW 41.4 mph 51.8 mph N/A   Haze
1:51 PM 75.9 °F 10.9 °F 8% 29.71 in 10.0 mi WNW 33.4 mph 47.2 mph N/A   Widespread Dust
2:51 PM 73.9 °F 16.0 °F 11% 29.71 in 6.0 mi WNW 33.4 mph 54.1 mph N/A   Haze
3:51 PM 72.0 °F 19.9 °F 14% 29.71 in 8.0 mi NW 46.0 mph 55.2 mph N/A   Widespread Dust
4:51 PM 69.1 °F 19.9 °F 15% 29.73 in 7.0 mi NW 41.4 mph 51.8 mph N/A   Clear
5:51 PM 66.9 °F 19.9 °F 17% 29.75 in 10.0 mi NW 33.4 mph 44.9 mph N/A   Clear
6:51 PM 64.9 °F 21.0 °F 19% 29.77 in 10.0 mi NW 34.5 mph 43.7 mph N/A   Clear
7:51 PM 64.0 °F 21.0 °F 19% 29.81 in 10.0 mi NW 33.4 mph 43.7 mph N/A   Clear
8:51 PM 62.1 °F 21.9 °F 21% 29.84 in 10.0 mi NW 24.2 mph 33.4 mph N/A   Partly Cloudy
9:51 PM 60.1 °F 21.9 °F 23% 29.85 in 10.0 mi NNW 23.0 mph - N/A   Partly Cloudy
10:51 PM 57.0 °F 24.1 °F 28% 29.88 in 10.0 mi NNW 17.3 mph - N/A   Clear
11:51 PM 55.0 °F 25.0 °F 31% 29.90 in 10.0 mi NNW 16.1 mph - N/A   Clear